Time,TemperatureF,DewpointF,PressureIn,WindDirection,WindDirectionDegrees,WindSpeedMPH,WindSpeedGustMPH,Humidity,HourlyPrecipIn,Conditions,Clouds,dailyrainin,SoftwareType,DateUTC
2013-07-26 00:02:00,60.6,50.5,29.93,NW,310,0.0,6.0,69,0.00,,,0.00,WUHU216DAVISVP2,2013-07-26 05:02:00,
2013-07-26 00:07:00,60.4,50.7,29.93,West,277,0.0,6.0,70,0.00,,,0.00,WUHU216DAVISVP2,2013-07-26 05:07:00,
2013-07-26 00:12:00,60.2,50.5,29.93,West,259,0.0,3.0,70,0.00,,,0.00,WUHU216DAVISVP2,2013-07-26 05:12:00,
2013-07-26 00:17:00,60.0,50.7,29.93,WSW,246,0.0,3.0,71,0.00,,,0.00,WUHU216DAVISVP2,2013-07-26 05:17:00,
2013-07-26 00:22:00,59.9,50.6,29.93,WNW,302,0.0,4.0,71,0.00,,,0.00,WUHU216DAVISVP2,2013-07-26 05:22:00,
2013-07-26 00:27:00,59.7,50.4,29.93,West,280,0.0,4.0,71,0.00,,,0.00,WUHU216DAVISVP2,2013-07-26 05:27:00,
2013-07-26 00:32:00,59.4,50.5,29.94,WNW,284,0.0,4.0,72,0.00,,,0.00,WUHU216DAVISVP2,2013-07-26 05:32:00,
2013-07-26 00:37:00,59.1,50.2,29.94,WNW,284,0.0,4.0,72,0.00,,,0.00,WUHU216DAVISVP2,2013-07-26 05:37:00,
2013-07-26 00:42:00,59.0,50.5,29.94,WNW,290,0.0,2.0,73,0.00,,,0.00,WUHU216DAVISVP2,2013-07-26 05:42:00,
2013-07-26 00:47:00,59.0,50.8,29.94,WNW,291,0.0,2.0,74,0.00,,,0.00,WUHU216DAVISVP2,2013-07-26 05:47:00,
2013-07-26 00:52:00,59.0,51.2,29.94,WNW,292,0.0,2.0,75,0.00,,,0.00,WUHU216DAVISVP2,2013-07-26 05:52:00,
2013-07-26 00:57:00,59.0,51.2,29.94,WNW,296,0.0,4.0,75,0.00,,,0.00,WUHU216DAVISVP2,2013-07-26 05:57:00,
2013-07-26 01:02:00,58.9,51.4,29.94,WNW,284,0.0,4.0,76,0.00,,,0.00,WUHU216DAVISVP2,2013-07-26 06:02:00,
2013-07-26 01:07:00,58.7,51.2,29.94,WNW,288,0.0,3.0,76,0.00,,,0.00,WUHU216DAVISVP2,2013-07-26 06:07:00,
2013-07-26 01:12:00,58.7,51.2,29.94,WNW,282,0.0,3.0,76,0.00,,,0.00,WUHU216DAVISVP2,2013-07-26 06:12:00,
2013-07-26 01:17:00,58.9,51.4,29.94,West,269,0.0,3.0,76,0.00,,,0.00,WUHU216DAVISVP2,2013-07-26 06:17:00,
2013-07-26 01:22:00,59.0,51.2,29.94,West,275,0.0,6.0,75,0.00,,,0.00,WUHU216DAVISVP2,2013-07-26 06:22:00,
2013-07-26 01:27:00,59.0,50.8,29.94,West,281,0.0,6.0,74,0.00,,,0.00,WUHU216DAVISVP2,2013-07-26 06:27:00,
2013-07-26 01:32:00,59.0,50.8,29.94,West,275,1.0,3.0,74,0.00,,,0.00,WUHU216DAVISVP2,2013-07-26 06:32:00,
2013-07-26 01:37:00,59.1,50.6,29.94,WNW,286,0.0,9.0,73,0.00,,,0.00,WUHU216DAVISVP2,2013-07-26 06:37:00,
2013-07-26 01:42:00,59.1,50.6,29.94,WNW,303,0.0,9.0,73,0.00,,,0.00,WUHU216DAVISVP2,2013-07-26 06:42:00,
2013-07-26 01:47:00,59.1,50.6,29.94,WNW,291,0.0,5.0,73,0.00,,,0.00,WUHU216DAVISVP2,2013-07-26 06:47:00,
2013-07-26 01:52:00,59.0,50.5,29.94,West,269,0.0,5.0,73,0.00,,,0.00,WUHU216DAVISVP2,2013-07-26 06:52:00,
2013-07-26 01:57:00,59.0,50.5,29.95,West,274,0.0,5.0,73,0.00,,,0.00,WUHU216DAVISVP2,2013-07-26 06:57:00,
2013-07-26 02:02:00,59.0,50.5,29.94,West,279,1.0,7.0,73,0.00,,,0.00,WUHU216DAVISVP2,2013-07-26 07:02:00,
2013-07-26 02:07:00,59.0,50.5,29.94,West,271,1.0,7.0,73,0.00,,,0.00,WUHU216DAVISVP2,2013-07-26 07:07:00,
2013-07-26 02:12:00,59.0,50.5,29.94,WNW,292,0.0,10.0,73,0.00,,,0.00,WUHU216DAVISVP2,2013-07-26 07:12:00,
2013-07-26 02:17:00,59.0,50.5,29.95,WNW,286,0.0,10.0,73,0.00,,,0.00,WUHU216DAVISVP2,2013-07-26 07:17:00,
2013-07-26 02:22:00,59.0,50.5,29.95,West,267,0.0,6.0,73,0.00,,,0.00,WUHU216DAVISVP2,2013-07-26 07:22:00,
2013-07-26 02:27:00,59.0,50.5,29.95,West,265,0.0,6.0,73,0.00,,,0.00,WUHU216DAVISVP2,2013-07-26 07:27:00,
2013-07-26 02:32:00,59.0,50.8,29.95,West,275,0.0,6.0,74,0.00,,,0.00,WUHU216DAVISVP2,2013-07-26 07:32:00,
2013-07-26 02:37:00,58.8,50.6,29.95,West,274,0.0,6.0,74,0.00,,,0.00,WUHU216DAVISVP2,2013-07-26 07:37:00,
2013-07-26 02:42:00,58.6,51.1,29.95,WNW,295,0.0,5.0,76,0.00,,,0.00,WUHU216DAVISVP2,2013-07-26 07:42:00,
2013-07-26 02:47:00,58.4,51.0,29.95,West,279,0.0,9.0,76,0.00,,,0.00,WUHU216DAVISVP2,2013-07-26 07:47:00,
2013-07-26 02:52:00,58.2,51.4,29.95,WNW,299,0.0,9.0,78,0.00,,,0.00,WUHU216DAVISVP2,2013-07-26 07:52:00,
2013-07-26 02:57:00,57.8,51.4,29.95,WNW,297,0.0,6.0,79,0.00,,,0.00,WUHU216DAVISVP2,2013-07-26 07:57:00,
2013-07-26 03:02:00,57.6,51.5,29.95,WNW,302,0.0,6.0,80,0.00,,,0.00,WUHU216DAVISVP2,2013-07-26 08:02:00,
2013-07-26 03:07:00,57.3,51.9,29.95,WNW,286,0.0,7.0,82,0.00,,,0.00,WUHU216DAVISVP2,2013-07-26 08:07:00,
2013-07-26 03:12:00,57.0,51.9,29.95,WNW,295,0.0,7.0,83,0.00,,,0.00,WUHU216DAVISVP2,2013-07-26 08:12:00,
2013-07-26 03:17:00,56.9,52.1,29.95,NW,314,0.0,10.0,84,0.00,,,0.00,WUHU216DAVISVP2,2013-07-26 08:17:00,
2013-07-26 03:22:00,56.9,52.1,29.95,West,272,2.0,10.0,84,0.00,,,0.00,WUHU216DAVISVP2,2013-07-26 08:22:00,
2013-07-26 03:27:00,56.9,52.4,29.95,WNW,296,0.0,10.0,85,0.00,,,0.00,WUHU216DAVISVP2,2013-07-26 08:27:00,
2013-07-26 03:32:00,56.9,52.1,29.95,SW,221,0.0,6.0,84,0.00,,,0.00,WUHU216DAVISVP2,2013-07-26 08:32:00,
2013-07-26 03:37:00,56.9,52.4,29.95,NW,304,2.0,6.0,85,0.00,,,0.00,WUHU216DAVISVP2,2013-07-26 08:37:00,
2013-07-26 03:42:00,56.9,52.4,29.95,WNW,291,0.0,11.0,85,0.00,,,0.00,WUHU216DAVISVP2,2013-07-26 08:42:00,
2013-07-26 03:47:00,56.9,52.4,29.96,West,278,0.0,11.0,85,0.00,,,0.00,WUHU216DAVISVP2,2013-07-26 08:47:00,
2013-07-26 03:52:00,57.0,52.5,29.95,West,280,0.0,7.0,85,0.00,,,0.00,WUHU216DAVISVP2,2013-07-26 08:52:00,
2013-07-26 03:57:00,57.1,52.6,29.96,WNW,284,1.0,7.0,85,0.00,,,0.00,WUHU216DAVISVP2,2013-07-26 08:57:00,
2013-07-26 04:02:00,57.1,52.6,29.96,WNW,283,2.0,7.0,85,0.00,,,0.00,WUHU216DAVISVP2,2013-07-26 09:02:00,
2013-07-26 04:07:00,57.1,52.6,29.96,WNW,292,0.0,13.0,85,0.00,,,0.00,WUHU216DAVISVP2,2013-07-26 09:07:00,
2013-07-26 04:12:00,57.1,52.6,29.96,WNW,284,0.0,13.0,85,0.00,,,0.00,WUHU216DAVISVP2,2013-07-26 09:12:00,
2013-07-26 04:17:00,57.1,52.6,29.96,West,274,0.0,6.0,85,0.00,,,0.00,WUHU216DAVISVP2,2013-07-26 09:17:00,
2013-07-26 04:22:00,57.1,52.6,29.96,WNW,290,0.0,6.0,85,0.00,,,0.00,WUHU216DAVISVP2,2013-07-26 09:22:00,
2013-07-26 04:27:00,57.1,52.6,29.96,West,259,0.0,6.0,85,0.00,,,0.00,WUHU216DAVISVP2,2013-07-26 09:27:00,
2013-07-26 04:32:00,57.0,52.5,29.96,NW,309,0.0,6.0,85,0.00,,,0.00,WUHU216DAVISVP2,2013-07-26 09:32:00,
2013-07-26 04:37:00,57.0,52.5,29.97,WNW,300,0.0,6.0,85,0.00,,,0.00,WUHU216DAVISVP2,2013-07-26 09:37:00,
2013-07-26 04:42:00,56.9,52.4,29.97,WNW,288,0.0,6.0,85,0.00,,,0.00,WUHU216DAVISVP2,2013-07-26 09:42:00,
2013-07-26 04:47:00,56.8,52.7,29.97,NNW,329,0.0,7.0,86,0.00,,,0.00,WUHU216DAVISVP2,2013-07-26 09:47:00,
2013-07-26 04:52:00,56.8,52.7,29.97,NE,48,0.0,7.0,86,0.00,,,0.00,WUHU216DAVISVP2,2013-07-26 09:52:00,
2013-07-26 04:57:00,56.9,52.7,29.97,WSW,256,0.0,5.0,86,0.00,,,0.00,WUHU216DAVISVP2,2013-07-26 09:57:00,
2013-07-26 05:02:00,57.0,52.5,29.97,West,275,0.0,5.0,85,0.00,,,0.00,WUHU216DAVISVP2,2013-07-26 10:02:00,
2013-07-26 05:07:00,57.1,52.6,29.98,NW,306,0.0,3.0,85,0.00,,,0.00,WUHU216DAVISVP2,2013-07-26 10:07:00,
2013-07-26 05:12:00,57.1,52.6,29.98,NNW,331,0.0,6.0,85,0.00,,,0.00,WUHU216DAVISVP2,2013-07-26 10:12:00,
2013-07-26 05:17:00,57.0,52.5,29.98,WNW,299,0.0,6.0,85,0.00,,,0.00,WUHU216DAVISVP2,2013-07-26 10:17:00,
2013-07-26 05:22:00,56.9,52.4,29.98,NW,323,0.0,6.0,85,0.00,,,0.00,WUHU216DAVISVP2,2013-07-26 10:22:00,
2013-07-26 05:27:00,56.8,52.3,29.98,NW,310,0.0,7.0,85,0.00,,,0.00,WUHU216DAVISVP2,2013-07-26 10:27:00,
2013-07-26 05:32:00,56.9,52.4,29.99,West,276,0.0,7.0,85,0.00,,,0.00,WUHU216DAVISVP2,2013-07-26 10:32:00,
2013-07-26 05:37:00,56.9,52.4,29.99,WNW,299,0.0,4.0,85,0.00,,,0.00,WUHU216DAVISVP2,2013-07-26 10:37:00,
2013-07-26 05:42:00,56.9,52.1,29.99,NNE,19,0.0,4.0,84,0.00,,,0.00,WUHU216DAVISVP2,2013-07-26 10:42:00,
2013-07-26 05:47:00,56.9,52.1,30.00,NNE,19,0.0,3.0,84,0.00,,,0.00,WUHU216DAVISVP2,2013-07-26 10:47:00,
2013-07-26 05:52:00,56.9,52.1,30.00,West,262,0.0,7.0,84,0.00,,,0.00,WUHU216DAVISVP2,2013-07-26 10:52:00,
2013-07-26 05:57:00,56.9,52.1,30.00,North,360,1.0,7.0,84,0.00,,,0.00,WUHU216DAVISVP2,2013-07-26 10:57:00,
2013-07-26 06:02:00,56.8,51.7,30.00,NW,325,0.0,6.0,83,0.00,,,0.00,WUHU216DAVISVP2,2013-07-26 11:02:00,
2013-07-26 06:07:00,56.8,51.7,30.00,WNW,288,0.0,6.0,83,0.00,,,0.00,WUHU216DAVISVP2,2013-07-26 11:07:00,
2013-07-26 06:12:00,56.8,51.4,30.00,NNW,336,0.0,6.0,82,0.00,,,0.00,WUHU216DAVISVP2,2013-07-26 11:12:00,
2013-07-26 06:17:00,56.8,51.4,30.01,WNW,288,0.0,6.0,82,0.00,,,0.00,WUHU216DAVISVP2,2013-07-26 11:17:00,
2013-07-26 06:22:00,56.8,51.4,30.01,WNW,296,0.0,10.0,82,0.00,,,0.00,WUHU216DAVISVP2,2013-07-26 11:22:00,
2013-07-26 06:27:00,56.6,51.2,30.02,NNW,337,0.0,10.0,82,0.00,,,0.00,WUHU216DAVISVP2,2013-07-26 11:27:00,
2013-07-26 06:32:00,56.6,51.2,30.02,North,349,0.0,5.0,82,0.00,,,0.00,WUHU216DAVISVP2,2013-07-26 11:32:00,
2013-07-26 06:37:00,56.5,50.8,30.02,WNW,300,0.0,6.0,81,0.00,,,0.00,WUHU216DAVISVP2,2013-07-26 11:37:00,
2013-07-26 06:42:00,56.4,50.7,30.03,NW,307,0.0,7.0,81,0.00,,,0.00,WUHU216DAVISVP2,2013-07-26 11:42:00,
2013-07-26 06:47:00,56.4,50.4,30.03,NNE,12,0.0,7.0,80,0.00,,,0.00,WUHU216DAVISVP2,2013-07-26 11:47:00,
2013-07-26 06:52:00,56.3,50.3,30.03,NE,41,0.0,4.0,80,0.00,,,0.00,WUHU216DAVISVP2,2013-07-26 11:52:00,
2013-07-26 06:57:00,56.2,49.8,30.04,North,360,1.0,11.0,79,0.00,,,0.00,WUHU216DAVISVP2,2013-07-26 11:57:00,
2013-07-26 07:02:00,56.1,49.7,30.04,ENE,71,0.0,11.0,79,0.00,,,0.00,WUHU216DAVISVP2,2013-07-26 12:02:00,
2013-07-26 07:07:00,56.1,49.7,30.04,NNE,14,0.0,6.0,79,0.00,,,0.00,WUHU216DAVISVP2,2013-07-26 12:07:00,
2013-07-26 07:12:00,56.0,49.6,30.05,NNE,19,2.0,6.0,79,0.00,,,0.00,WUHU216DAVISVP2,2013-07-26 12:12:00,
2013-07-26 07:17:00,56.0,49.3,30.05,North,360,0.0,5.0,78,0.00,,,0.00,WUHU216DAVISVP2,2013-07-26 12:17:00,
2013-07-26 07:22:00,55.9,49.2,30.05,NW,315,0.0,6.0,78,0.00,,,0.00,WUHU216DAVISVP2,2013-07-26 12:22:00,
2013-07-26 07:27:00,56.0,49.6,30.05,NW,313,0.0,6.0,79,0.00,,,0.00,WUHU216DAVISVP2,2013-07-26 12:27:00,
2013-07-26 07:32:00,56.0,49.3,30.05,NNW,335,0.0,6.0,78,0.00,,,0.00,WUHU216DAVISVP2,2013-07-26 12:32:00,
2013-07-26 07:37:00,56.0,49.3,30.06,NNE,17,0.0,6.0,78,0.00,,,0.00,WUHU216DAVISVP2,2013-07-26 12:37:00,
2013-07-26 07:42:00,56.2,49.5,30.06,NW,313,0.0,5.0,78,0.00,,,0.00,WUHU216DAVISVP2,2013-07-26 12:42:00,
2013-07-26 07:47:00,56.2,49.5,30.06,NW,321,0.0,4.0,78,0.00,,,0.00,WUHU216DAVISVP2,2013-07-26 12:47:00,
2013-07-26 07:52:00,56.4,49.7,30.06,North,5,0.0,4.0,78,0.00,,,0.00,WUHU216DAVISVP2,2013-07-26 12:52:00,
2013-07-26 07:57:00,56.3,49.6,30.06,NW,317,2.0,6.0,78,0.00,,,0.00,WUHU216DAVISVP2,2013-07-26 12:57:00,
2013-07-26 08:02:00,56.3,49.3,30.06,NNE,28,0.0,6.0,77,0.00,,,0.00,WUHU216DAVISVP2,2013-07-26 13:02:00,
2013-07-26 08:07:00,56.4,49.4,30.07,NNE,15,0.0,6.0,77,0.00,,,0.00,WUHU216DAVISVP2,2013-07-26 13:07:00,
2013-07-26 08:12:00,56.4,49.4,30.07,North,355,0.0,9.0,77,0.00,,,0.00,WUHU216DAVISVP2,2013-07-26 13:12:00,
2013-07-26 08:18:00,56.5,49.5,30.06,North,11,0.0,10.0,77,0.00,,,0.00,WUHU216DAVISVP2,2013-07-26 13:18:00,
2013-07-26 08:23:00,56.5,49.1,30.07,NNE,17,0.0,12.0,76,0.00,,,0.00,WUHU216DAVISVP2,2013-07-26 13:23:00,
2013-07-26 08:28:00,56.6,49.5,30.07,ENE,71,0.0,12.0,77,0.00,,,0.00,WUHU216DAVISVP2,2013-07-26 13:28:00,
2013-07-26 08:33:00,56.9,49.5,30.07,NW,305,0.0,10.0,76,0.00,,,0.00,WUHU216DAVISVP2,2013-07-26 13:33:00,
2013-07-26 08:38:00,57.5,50.1,30.07,North,350,0.0,10.0,76,0.00,,,0.00,WUHU216DAVISVP2,2013-07-26 13:38:00,
2013-07-26 08:43:00,58.3,50.5,30.07,WNW,299,0.0,10.0,75,0.00,,,0.00,WUHU216DAVISVP2,2013-07-26 13:43:00,
2013-07-26 08:48:00,58.2,49.7,30.07,NNE,30,5.0,12.0,73,0.00,,,0.00,WUHU216DAVISVP2,2013-07-26 13:48:00,
2013-07-26 08:53:00,58.0,49.5,30.07,SSE,151,0.0,12.0,73,0.00,,,0.00,WUHU216DAVISVP2,2013-07-26 13:53:00,
2013-07-26 08:58:00,58.6,50.1,30.07,North,5,2.0,7.0,73,0.00,,,0.00,WUHU216DAVISVP2,2013-07-26 13:58:00,
2013-07-26 09:03:00,58.8,49.9,30.07,NNE,24,5.0,9.0,72,0.00,,,0.00,WUHU216DAVISVP2,2013-07-26 14:03:00,
2013-07-26 09:08:00,59.0,50.5,30.07,NNE,17,1.0,9.0,73,0.00,,,0.00,WUHU216DAVISVP2,2013-07-26 14:08:00,
2013-07-26 09:13:00,58.7,49.8,30.07,NW,311,2.0,10.0,72,0.00,,,0.00,WUHU216DAVISVP2,2013-07-26 14:13:00,
2013-07-26 09:18:00,58.7,49.8,30.08,NE,34,0.0,10.0,72,0.00,,,0.00,WUHU216DAVISVP2,2013-07-26 14:18:00,
2013-07-26 09:23:00,59.0,50.1,30.08,North,10,6.0,11.0,72,0.00,,,0.00,WUHU216DAVISVP2,2013-07-26 14:23:00,
2013-07-26 09:28:00,59.5,50.2,30.08,NNE,32,1.0,11.0,71,0.00,,,0.00,WUHU216DAVISVP2,2013-07-26 14:28:00,
2013-07-26 09:33:00,59.8,50.1,30.09,NNE,18,3.0,11.0,70,0.00,,,0.00,WUHU216DAVISVP2,2013-07-26 14:33:00,
2013-07-26 09:38:00,60.9,51.2,30.09,North,360,3.0,11.0,70,0.00,,,0.00,WUHU216DAVISVP2,2013-07-26 14:38:00,
2013-07-26 09:43:00,61.1,51.0,30.09,NE,36,0.0,9.0,69,0.00,,,0.00,WUHU216DAVISVP2,2013-07-26 14:43:00,
2013-07-26 09:48:00,61.8,51.3,30.09,West,276,6.0,9.0,68,0.00,,,0.00,WUHU216DAVISVP2,2013-07-26 14:48:00,
2013-07-26 09:53:00,62.3,51.4,30.09,NNE,15,2.0,9.0,67,0.00,,,0.00,WUHU216DAVISVP2,2013-07-26 14:53:00,
2013-07-26 09:58:00,62.1,51.2,30.09,North,360,1.0,9.0,67,0.00,,,0.00,WUHU216DAVISVP2,2013-07-26 14:58:00,
2013-07-26 10:03:00,62.1,50.8,30.10,NNE,17,2.0,14.0,66,0.00,,,0.00,WUHU216DAVISVP2,2013-07-26 15:03:00,
2013-07-26 10:08:00,62.2,51.3,30.09,NNE,14,0.0,14.0,67,0.00,,,0.00,WUHU216DAVISVP2,2013-07-26 15:08:00,
2013-07-26 10:13:00,63.3,51.9,30.10,NNE,15,2.0,5.0,66,0.00,,,0.00,WUHU216DAVISVP2,2013-07-26 15:13:00,
2013-07-26 10:18:00,63.4,51.2,30.10,WNW,287,0.0,5.0,64,0.00,,,0.00,WUHU216DAVISVP2,2013-07-26 15:18:00,
2013-07-26 10:23:00,63.2,51.0,30.10,NNE,24,0.0,5.0,64,0.00,,,0.00,WUHU216DAVISVP2,2013-07-26 15:23:00,
2013-07-26 10:28:00,63.3,51.1,30.10,North,9,0.0,5.0,64,0.00,,,0.00,WUHU216DAVISVP2,2013-07-26 15:28:00,
2013-07-26 10:33:00,63.5,50.8,30.10,WNW,302,1.0,11.0,63,0.00,,,0.00,WUHU216DAVISVP2,2013-07-26 15:33:00,
2013-07-26 10:38:00,63.4,50.3,30.10,NNW,344,0.0,11.0,62,0.00,,,0.00,WUHU216DAVISVP2,2013-07-26 15:38:00,
2013-07-26 10:43:00,63.7,51.0,30.10,NW,323,2.0,7.0,63,0.00,,,0.00,WUHU216DAVISVP2,2013-07-26 15:43:00,
2013-07-26 10:48:00,63.7,50.1,30.11,North,355,2.0,12.0,61,0.00,,,0.00,WUHU216DAVISVP2,2013-07-26 15:48:00,
2013-07-26 10:53:00,64.0,50.0,30.11,NNE,32,6.0,12.0,60,0.00,,,0.00,WUHU216DAVISVP2,2013-07-26 15:53:00,
2013-07-26 10:58:00,64.3,50.3,30.11,NNW,348,1.0,14.0,60,0.00,,,0.00,WUHU216DAVISVP2,2013-07-26 15:58:00,
2013-07-26 11:03:00,64.2,49.7,30.11,NNE,18,2.0,14.0,59,0.00,,,0.00,WUHU216DAVISVP2,2013-07-26 16:03:00,
2013-07-26 11:08:00,64.2,49.7,30.12,NE,38,1.0,11.0,59,0.00,,,0.00,WUHU216DAVISVP2,2013-07-26 16:08:00,
2013-07-26 11:13:00,64.1,50.1,30.12,NW,306,0.0,11.0,60,0.00,,,0.00,WUHU216DAVISVP2,2013-07-26 16:13:00,
2013-07-26 11:18:00,64.1,49.6,30.12,NNE,28,5.0,14.0,59,0.00,,,0.00,WUHU216DAVISVP2,2013-07-26 16:18:00,
2013-07-26 11:23:00,64.3,50.3,30.12,NNE,18,4.0,14.0,60,0.00,,,0.00,WUHU216DAVISVP2,2013-07-26 16:23:00,
2013-07-26 11:28:00,64.4,49.9,30.12,NNE,28,0.0,11.0,59,0.00,,,0.00,WUHU216DAVISVP2,2013-07-26 16:28:00,
2013-07-26 11:33:00,65.0,50.5,30.12,WNW,303,0.0,10.0,59,0.00,,,0.00,WUHU216DAVISVP2,2013-07-26 16:33:00,
2013-07-26 11:38:00,64.6,49.6,30.11,NNE,13,0.0,10.0,58,0.00,,,0.00,WUHU216DAVISVP2,2013-07-26 16:38:00,
2013-07-26 11:43:00,64.9,49.9,30.11,NNE,28,3.0,14.0,58,0.00,,,0.00,WUHU216DAVISVP2,2013-07-26 16:43:00,
2013-07-26 11:48:00,64.8,48.8,30.11,NE,42,0.0,14.0,56,0.00,,,0.00,WUHU216DAVISVP2,2013-07-26 16:48:00,
2013-07-26 11:53:00,64.0,49.1,30.11,NNE,24,0.0,12.0,58,0.00,,,0.00,WUHU216DAVISVP2,2013-07-26 16:53:00,
2013-07-26 11:58:00,65.5,50.0,30.11,NNE,12,4.0,12.0,57,0.00,,,0.00,WUHU216DAVISVP2,2013-07-26 16:58:00,
2013-07-26 12:03:00,65.6,49.6,30.11,NNE,19,0.0,19.0,56,0.00,,,0.00,WUHU216DAVISVP2,2013-07-26 17:03:00,
2013-07-26 12:08:00,66.1,49.6,30.11,NNE,20,9.0,19.0,55,0.00,,,0.00,WUHU216DAVISVP2,2013-07-26 17:08:00,
2013-07-26 12:13:00,65.8,49.3,30.11,North,9,8.0,16.0,55,0.00,,,0.00,WUHU216DAVISVP2,2013-07-26 17:13:00,
2013-07-26 12:18:00,65.4,49.4,30.10,SSE,167,1.0,16.0,56,0.00,,,0.00,WUHU216DAVISVP2,2013-07-26 17:18:00,
2013-07-26 12:23:00,66.6,49.5,30.10,North,11,1.0,16.0,54,0.00,,,0.00,WUHU216DAVISVP2,2013-07-26 17:23:00,
2013-07-26 12:28:00,66.0,47.9,30.11,NNE,17,5.0,16.0,52,0.00,,,0.00,WUHU216DAVISVP2,2013-07-26 17:28:00,
2013-07-26 12:33:00,66.9,48.2,30.10,North,360,0.0,15.0,51,0.00,,,0.00,WUHU216DAVISVP2,2013-07-26 17:33:00,
2013-07-26 12:38:00,67.4,48.2,30.10,NNE,22,1.0,10.0,50,0.00,,,0.00,WUHU216DAVISVP2,2013-07-26 17:38:00,
2013-07-26 12:43:00,66.8,47.0,30.10,NNE,19,0.0,12.0,49,0.00,,,0.00,WUHU216DAVISVP2,2013-07-26 17:43:00,
2013-07-26 12:48:00,66.9,46.6,30.11,NNE,15,1.0,12.0,48,0.00,,,0.00,WUHU216DAVISVP2,2013-07-26 17:48:00,
2013-07-26 12:53:00,67.0,46.7,30.10,NNE,25,3.0,14.0,48,0.00,,,0.00,WUHU216DAVISVP2,2013-07-26 17:53:00,
2013-07-26 12:58:00,67.0,47.8,30.10,NNE,20,1.0,14.0,50,0.00,,,0.00,WUHU216DAVISVP2,2013-07-26 17:58:00,
2013-07-26 13:03:00,66.8,45.3,30.11,NNE,26,1.0,13.0,46,0.00,,,0.00,WUHU216DAVISVP2,2013-07-26 18:03:00,
2013-07-26 13:08:00,67.1,45.6,30.11,NNE,27,2.0,13.0,46,0.00,,,0.00,WUHU216DAVISVP2,2013-07-26 18:08:00,
2013-07-26 13:13:00,67.2,47.4,30.11,NW,320,2.0,14.0,49,0.00,,,0.00,WUHU216DAVISVP2,2013-07-26 18:13:00,
2013-07-26 13:18:00,67.6,46.1,30.11,NNE,29,0.0,14.0,46,0.00,,,0.00,WUHU216DAVISVP2,2013-07-26 18:18:00,
2013-07-26 13:23:00,67.8,46.2,30.12,North,360,5.0,10.0,46,0.00,,,0.00,WUHU216DAVISVP2,2013-07-26 18:23:00,
2013-07-26 13:28:00,67.8,46.2,30.12,NNE,12,0.0,13.0,46,0.00,,,0.00,WUHU216DAVISVP2,2013-07-26 18:28:00,
2013-07-26 13:33:00,68.6,47.6,30.12,West,280,0.0,13.0,47,0.00,,,0.00,WUHU216DAVISVP2,2013-07-26 18:33:00,
2013-07-26 13:38:00,68.0,45.8,30.12,WNW,298,0.0,7.0,45,0.00,,,0.00,WUHU216DAVISVP2,2013-07-26 18:38:00,
2013-07-26 13:43:00,68.9,47.2,30.12,North,10,0.0,11.0,46,0.00,,,0.00,WUHU216DAVISVP2,2013-07-26 18:43:00,
2013-07-26 13:48:00,67.9,45.7,30.12,NNE,18,5.0,16.0,45,0.00,,,0.00,WUHU216DAVISVP2,2013-07-26 18:48:00,
2013-07-26 13:53:00,68.7,47.1,30.12,WNW,300,0.0,16.0,46,0.00,,,0.00,WUHU216DAVISVP2,2013-07-26 18:53:00,
2013-07-26 13:58:00,68.3,46.7,30.12,WNW,303,0.0,4.0,46,0.00,,,0.00,WUHU216DAVISVP2,2013-07-26 18:58:00,
2013-07-26 14:03:00,68.3,46.7,30.12,NNE,26,1.0,4.0,46,0.00,,,0.00,WUHU216DAVISVP2,2013-07-26 19:03:00,
2013-07-26 14:08:00,68.1,45.9,30.12,NNE,25,2.0,5.0,45,0.00,,,0.00,WUHU216DAVISVP2,2013-07-26 19:08:00,
2013-07-26 14:13:00,68.5,46.9,30.12,NNE,24,4.0,6.0,46,0.00,,,0.00,WUHU216DAVISVP2,2013-07-26 19:13:00,
2013-07-26 14:18:00,67.5,46.6,30.13,West,277,0.0,12.0,47,0.00,,,0.00,WUHU216DAVISVP2,2013-07-26 19:18:00,
2013-07-26 14:23:00,67.9,46.9,30.12,NW,315,0.0,13.0,47,0.00,,,0.00,WUHU216DAVISVP2,2013-07-26 19:23:00,
2013-07-26 14:28:00,68.3,46.1,30.13,NNE,14,0.0,15.0,45,0.00,,,0.00,WUHU216DAVISVP2,2013-07-26 19:28:00,
2013-07-26 14:33:00,68.1,45.3,30.12,NNE,13,1.0,15.0,44,0.00,,,0.00,WUHU216DAVISVP2,2013-07-26 19:33:00,
2013-07-26 14:38:00,67.8,45.6,30.12,NNE,15,4.0,14.0,45,0.00,,,0.00,WUHU216DAVISVP2,2013-07-26 19:38:00,
2013-07-26 14:43:00,67.9,46.9,30.12,NE,35,2.0,10.0,47,0.00,,,0.00,WUHU216DAVISVP2,2013-07-26 19:43:00,
2013-07-26 14:48:00,67.5,45.4,30.12,NNE,13,0.0,12.0,45,0.00,,,0.00,WUHU216DAVISVP2,2013-07-26 19:48:00,
2013-07-26 14:53:00,68.3,46.1,30.12,WNW,296,4.0,12.0,45,0.00,,,0.00,WUHU216DAVISVP2,2013-07-26 19:53:00,
2013-07-26 14:58:00,69.5,45.9,30.12,NNE,31,1.0,9.0,43,0.00,,,0.00,WUHU216DAVISVP2,2013-07-26 19:58:00,
2013-07-26 15:03:00,68.5,46.3,30.12,NNE,19,0.0,14.0,45,0.00,,,0.00,WUHU216DAVISVP2,2013-07-26 20:03:00,
2013-07-26 15:08:00,68.4,46.2,30.12,North,355,0.0,14.0,45,0.00,,,0.00,WUHU216DAVISVP2,2013-07-26 20:08:00,
2013-07-26 15:13:00,68.2,45.4,30.12,North,360,0.0,6.0,44,0.00,,,0.00,WUHU216DAVISVP2,2013-07-26 20:13:00,
2013-07-26 15:18:00,68.1,45.3,30.12,WNW,302,0.0,6.0,44,0.00,,,0.00,WUHU216DAVISVP2,2013-07-26 20:18:00,
2013-07-26 15:23:00,68.5,45.0,30.12,West,261,1.0,6.0,43,0.00,,,0.00,WUHU216DAVISVP2,2013-07-26 20:23:00,
2013-07-26 15:28:00,69.0,46.1,30.12,NNE,33,1.0,5.0,44,0.00,,,0.00,WUHU216DAVISVP2,2013-07-26 20:28:00,
2013-07-26 15:33:00,69.3,46.4,30.12,North,10,0.0,6.0,44,0.00,,,0.00,WUHU216DAVISVP2,2013-07-26 20:33:00,
2013-07-26 15:38:00,68.4,45.6,30.12,NNE,21,1.0,12.0,44,0.00,,,0.00,WUHU216DAVISVP2,2013-07-26 20:38:00,
2013-07-26 15:43:00,67.6,45.5,30.12,West,269,7.0,12.0,45,0.00,,,0.00,WUHU216DAVISVP2,2013-07-26 20:43:00,
2013-07-26 15:48:00,67.8,45.0,30.12,NNE,32,0.0,10.0,44,0.00,,,0.00,WUHU216DAVISVP2,2013-07-26 20:48:00,
2013-07-26 15:53:00,68.6,46.4,30.12,NW,314,1.0,10.0,45,0.00,,,0.00,WUHU216DAVISVP2,2013-07-26 20:53:00,
2013-07-26 15:58:00,69.6,47.3,30.12,West,276,0.0,7.0,45,0.00,,,0.00,WUHU216DAVISVP2,2013-07-26 20:58:00,
2013-07-26 16:03:00,69.6,46.7,30.12,NE,45,0.0,15.0,44,0.00,,,0.00,WUHU216DAVISVP2,2013-07-26 21:03:00,
2013-07-26 16:08:00,69.7,47.4,30.12,WNW,284,0.0,15.0,45,0.00,,,0.00,WUHU216DAVISVP2,2013-07-26 21:08:00,
2013-07-26 16:13:00,69.2,46.3,30.12,NNE,22,3.0,11.0,44,0.00,,,0.00,WUHU216DAVISVP2,2013-07-26 21:13:00,
2013-07-26 16:18:00,69.0,46.1,30.12,NE,36,0.0,11.0,44,0.00,,,0.00,WUHU216DAVISVP2,2013-07-26 21:18:00,
2013-07-26 16:23:00,69.1,46.8,30.12,NNE,25,0.0,10.0,45,0.00,,,0.00,WUHU216DAVISVP2,2013-07-26 21:23:00,
2013-07-26 16:28:00,68.6,46.4,30.12,NNE,25,0.0,10.0,45,0.00,,,0.00,WUHU216DAVISVP2,2013-07-26 21:28:00,
2013-07-26 16:33:00,68.7,47.7,30.12,NNE,27,0.0,4.0,47,0.00,,,0.00,WUHU216DAVISVP2,2013-07-26 21:33:00,
2013-07-26 16:38:00,68.9,47.2,30.12,NNE,30,0.0,5.0,46,0.00,,,0.00,WUHU216DAVISVP2,2013-07-26 21:38:00,
2013-07-26 16:43:00,69.2,46.9,30.11,NW,315,0.0,7.0,45,0.00,,,0.00,WUHU216DAVISVP2,2013-07-26 21:43:00,
2013-07-26 16:48:00,69.7,47.4,30.12,North,360,0.0,7.0,45,0.00,,,0.00,WUHU216DAVISVP2,2013-07-26 21:48:00,
2013-07-26 16:53:00,70.0,48.3,30.11,NNW,336,0.0,6.0,46,0.00,,,0.00,WUHU216DAVISVP2,2013-07-26 21:53:00,
2013-07-26 16:58:00,69.9,45.7,30.11,NNE,17,0.0,16.0,42,0.00,,,0.00,WUHU216DAVISVP2,2013-07-26 21:58:00,
2013-07-26 17:03:00,68.7,46.5,30.12,North,5,1.0,16.0,45,0.00,,,0.00,WUHU216DAVISVP2,2013-07-26 22:03:00,
2013-07-26 17:08:00,68.3,46.1,30.11,NNE,15,0.0,12.0,45,0.00,,,0.00,WUHU216DAVISVP2,2013-07-26 22:08:00,
2013-07-26 17:13:00,68.8,47.2,30.11,North,355,0.0,12.0,46,0.00,,,0.00,WUHU216DAVISVP2,2013-07-26 22:13:00,
2013-07-26 17:18:00,68.8,47.2,30.12,North,9,4.0,12.0,46,0.00,,,0.00,WUHU216DAVISVP2,2013-07-26 22:18:00,
2013-07-26 17:23:00,68.1,46.5,30.11,NNE,19,0.0,9.0,46,0.00,,,0.00,WUHU216DAVISVP2,2013-07-26 22:23:00,
2013-07-26 17:28:00,68.9,47.2,30.12,NNE,28,0.0,9.0,46,0.00,,,0.00,WUHU216DAVISVP2,2013-07-26 22:28:00,
2013-07-26 17:33:00,69.0,46.1,30.12,North,9,1.0,12.0,44,0.00,,,0.00,WUHU216DAVISVP2,2013-07-26 22:33:00,
2013-07-26 17:38:00,68.2,46.0,30.12,NE,38,0.0,12.0,45,0.00,,,0.00,WUHU216DAVISVP2,2013-07-26 22:38:00,
2013-07-26 17:43:00,68.4,46.8,30.12,NE,36,2.0,10.0,46,0.00,,,0.00,WUHU216DAVISVP2,2013-07-26 22:43:00,
2013-07-26 17:48:00,68.2,46.6,30.11,WSW,256,1.0,12.0,46,0.00,,,0.00,WUHU216DAVISVP2,2013-07-26 22:48:00,
2013-07-26 17:53:00,68.8,45.9,30.12,NE,37,0.0,12.0,44,0.00,,,0.00,WUHU216DAVISVP2,2013-07-26 22:53:00,
2013-07-26 17:58:00,68.7,45.8,30.11,NNE,32,0.0,11.0,44,0.00,,,0.00,WUHU216DAVISVP2,2013-07-26 22:58:00,
2013-07-26 18:03:00,69.4,46.5,30.11,West,270,2.0,7.0,44,0.00,,,0.00,WUHU216DAVISVP2,2013-07-26 23:03:00,
2013-07-26 18:08:00,68.8,45.3,30.12,NNE,14,1.0,11.0,43,0.00,,,0.00,WUHU216DAVISVP2,2013-07-26 23:08:00,
2013-07-26 18:13:00,68.9,45.4,30.12,WNW,284,0.0,11.0,43,0.00,,,0.00,WUHU216DAVISVP2,2013-07-26 23:13:00,
2013-07-26 18:18:00,69.4,46.5,30.11,WNW,293,0.0,6.0,44,0.00,,,0.00,WUHU216DAVISVP2,2013-07-26 23:18:00,
2013-07-26 18:23:00,69.6,46.7,30.11,ENE,60,0.0,7.0,44,0.00,,,0.00,WUHU216DAVISVP2,2013-07-26 23:23:00,
2013-07-26 18:28:00,69.9,45.7,30.11,NNW,339,0.0,7.0,42,0.00,,,0.00,WUHU216DAVISVP2,2013-07-26 23:28:00,
2013-07-26 18:33:00,69.5,45.3,30.11,WNW,296,0.0,13.0,42,0.00,,,0.00,WUHU216DAVISVP2,2013-07-26 23:33:00,
2013-07-26 18:38:00,69.3,45.8,30.11,NNW,336,1.0,13.0,43,0.00,,,0.00,WUHU216DAVISVP2,2013-07-26 23:38:00,
2013-07-26 18:43:00,69.1,46.2,30.11,WNW,285,0.0,10.0,44,0.00,,,0.00,WUHU216DAVISVP2,2013-07-26 23:43:00,
2013-07-26 18:48:00,68.7,43.9,30.11,NNE,17,2.0,13.0,41,0.00,,,0.00,WUHU216DAVISVP2,2013-07-26 23:48:00,
2013-07-26 18:53:00,68.0,44.6,30.11,NNE,18,0.0,13.0,43,0.00,,,0.00,WUHU216DAVISVP2,2013-07-26 23:53:00,
2013-07-26 18:58:00,68.1,44.7,30.11,West,276,0.0,5.0,43,0.00,,,0.00,WUHU216DAVISVP2,2013-07-26 23:58:00,
2013-07-26 19:03:00,68.1,45.3,30.12,NNE,16,2.0,6.0,44,0.00,,,0.00,WUHU216DAVISVP2,2013-07-27 00:03:00,
2013-07-26 19:08:00,67.9,45.7,30.11,NNW,346,2.0,6.0,45,0.00,,,0.00,WUHU216DAVISVP2,2013-07-27 00:08:00,
2013-07-26 19:13:00,67.6,44.8,30.12,NE,36,2.0,5.0,44,0.00,,,0.00,WUHU216DAVISVP2,2013-07-27 00:13:00,
2013-07-26 19:18:00,67.2,44.5,30.12,NNE,17,0.0,7.0,44,0.00,,,0.00,WUHU216DAVISVP2,2013-07-27 00:18:00,
2013-07-26 19:23:00,66.9,43.6,30.11,NNE,32,0.0,10.0,43,0.00,,,0.00,WUHU216DAVISVP2,2013-07-27 00:23:00,
2013-07-26 19:28:00,66.9,43.6,30.11,NE,36,0.0,10.0,43,0.00,,,0.00,WUHU216DAVISVP2,2013-07-27 00:28:00,
2013-07-26 19:33:00,66.8,43.5,30.11,NNE,14,0.0,4.0,43,0.00,,,0.00,WUHU216DAVISVP2,2013-07-27 00:33:00,
2013-07-26 19:38:00,66.6,43.3,30.11,NNE,30,0.0,11.0,43,0.00,,,0.00,WUHU216DAVISVP2,2013-07-27 00:38:00,
2013-07-26 19:43:00,66.4,43.8,30.11,NNE,16,0.0,11.0,44,0.00,,,0.00,WUHU216DAVISVP2,2013-07-27 00:43:00,
2013-07-26 19:48:00,66.4,44.4,30.11,NNE,17,2.0,6.0,45,0.00,,,0.00,WUHU216DAVISVP2,2013-07-27 00:48:00,
2013-07-26 19:53:00,66.4,44.4,30.11,NNE,33,1.0,5.0,45,0.00,,,0.00,WUHU216DAVISVP2,2013-07-27 00:53:00,
2013-07-26 19:58:00,65.9,44.5,30.11,NNE,13,0.0,10.0,46,0.00,,,0.00,WUHU216DAVISVP2,2013-07-27 00:58:00,
2013-07-26 20:03:00,65.9,45.1,30.11,NNE,16,0.0,10.0,47,0.00,,,0.00,WUHU216DAVISVP2,2013-07-27 01:03:00,
2013-07-26 20:08:00,65.6,44.8,30.11,North,360,0.0,7.0,47,0.00,,,0.00,WUHU216DAVISVP2,2013-07-27 01:08:00,
2013-07-26 20:13:00,65.4,44.6,30.12,NNE,26,1.0,7.0,47,0.00,,,0.00,WUHU216DAVISVP2,2013-07-27 01:13:00,
2013-07-26 20:18:00,65.2,45.6,30.12,NNE,26,1.0,7.0,49,0.00,,,0.00,WUHU216DAVISVP2,2013-07-27 01:18:00,
2013-07-26 20:23:00,64.8,45.2,30.12,NNE,26,0.0,11.0,49,0.00,,,0.00,WUHU216DAVISVP2,2013-07-27 01:23:00,
2013-07-26 20:28:00,64.4,44.8,30.12,NE,40,3.0,11.0,49,0.00,,,0.00,WUHU216DAVISVP2,2013-07-27 01:28:00,
2013-07-26 20:33:00,64.0,45.0,30.12,NNE,26,0.0,7.0,50,0.00,,,0.00,WUHU216DAVISVP2,2013-07-27 01:33:00,
2013-07-26 20:38:00,63.6,45.2,30.12,NNE,19,0.0,7.0,51,0.00,,,0.00,WUHU216DAVISVP2,2013-07-27 01:38:00,
2013-07-26 20:43:00,63.3,44.9,30.12,NNE,28,2.0,11.0,51,0.00,,,0.00,WUHU216DAVISVP2,2013-07-27 01:43:00,
2013-07-26 20:48:00,63.1,45.2,30.12,North,11,0.0,11.0,52,0.00,,,0.00,WUHU216DAVISVP2,2013-07-27 01:48:00,
2013-07-26 20:53:00,62.9,45.1,30.12,North,10,0.0,9.0,52,0.00,,,0.00,WUHU216DAVISVP2,2013-07-27 01:53:00,
2013-07-26 20:58:00,62.7,45.4,30.12,NNE,32,0.0,9.0,53,0.00,,,0.00,WUHU216DAVISVP2,2013-07-27 01:58:00,
2013-07-26 21:03:00,62.5,45.2,30.12,NNE,32,0.0,3.0,53,0.00,,,0.00,WUHU216DAVISVP2,2013-07-27 02:03:00,
2013-07-26 21:08:00,62.3,45.5,30.13,NNE,30,0.0,4.0,54,0.00,,,0.00,WUHU216DAVISVP2,2013-07-27 02:08:00,
2013-07-26 21:13:00,62.0,45.7,30.13,NE,54,0.0,4.0,55,0.00,,,0.00,WUHU216DAVISVP2,2013-07-27 02:13:00,
2013-07-26 21:18:00,61.7,45.9,30.12,NE,49,0.0,2.0,56,0.00,,,0.00,WUHU216DAVISVP2,2013-07-27 02:18:00,
2013-07-26 21:23:00,61.4,46.1,30.13,NE,48,0.0,1.0,57,0.00,,,0.00,WUHU216DAVISVP2,2013-07-27 02:23:00,
2013-07-26 21:28:00,61.1,45.9,30.12,NE,47,0.0,1.0,57,0.00,,,0.00,WUHU216DAVISVP2,2013-07-27 02:28:00,
2013-07-26 21:33:00,60.8,46.0,30.13,NE,34,0.0,2.0,58,0.00,,,0.00,WUHU216DAVISVP2,2013-07-27 02:33:00,
2013-07-26 21:38:00,60.7,46.4,30.13,NNE,33,0.0,2.0,59,0.00,,,0.00,WUHU216DAVISVP2,2013-07-27 02:38:00,
2013-07-26 21:43:00,60.4,45.7,30.13,NE,34,0.0,0.0,58,0.00,,,0.00,WUHU216DAVISVP2,2013-07-27 02:43:00,
2013-07-26 21:48:00,60.2,45.9,30.13,NE,34,0.0,0.0,59,0.00,,,0.00,WUHU216DAVISVP2,2013-07-27 02:48:00,
2013-07-26 21:53:00,60.0,45.8,30.13,NE,34,0.0,0.0,59,0.00,,,0.00,WUHU216DAVISVP2,2013-07-27 02:53:00,
2013-07-26 21:58:00,59.8,46.0,30.13,NNE,33,0.0,0.0,60,0.00,,,0.00,WUHU216DAVISVP2,2013-07-27 02:58:00,
2013-07-26 22:03:00,59.5,45.7,30.13,NE,34,0.0,0.0,60,0.00,,,0.00,WUHU216DAVISVP2,2013-07-27 03:03:00,
2013-07-26 22:08:00,59.2,45.9,30.14,NE,34,0.0,0.0,61,0.00,,,0.00,WUHU216DAVISVP2,2013-07-27 03:08:00,
2013-07-26 22:13:00,59.0,45.7,30.14,NNE,29,0.0,2.0,61,0.00,,,0.00,WUHU216DAVISVP2,2013-07-27 03:13:00,
2013-07-26 22:14:00,59.0,45.7,30.14,NNE,30,0.0,2.0,61,0.00,,,0.00,WUHU216DAVISVP2,2013-07-27 03:14:00,
2013-07-26 22:19:00,59.0,45.7,30.14,NNE,31,0.0,2.0,61,0.00,,,0.00,WUHU216DAVISVP2,2013-07-27 03:19:00,
2013-07-26 22:24:00,59.0,45.7,30.14,NNE,16,0.0,3.0,61,0.00,,,0.00,WUHU216DAVISVP2,2013-07-27 03:24:00,
2013-07-26 22:29:00,59.0,46.1,30.14,NNE,30,0.0,4.0,62,0.00,,,0.00,WUHU216DAVISVP2,2013-07-27 03:29:00,
2013-07-26 22:34:00,58.7,45.8,30.14,NNE,29,0.0,4.0,62,0.00,,,0.00,WUHU216DAVISVP2,2013-07-27 03:34:00,
2013-07-26 22:39:00,58.5,46.1,30.15,NNE,29,0.0,2.0,63,0.00,,,0.00,WUHU216DAVISVP2,2013-07-27 03:39:00,
2013-07-26 22:44:00,58.6,46.2,30.15,NNE,13,0.0,2.0,63,0.00,,,0.00,WUHU216DAVISVP2,2013-07-27 03:44:00,
2013-07-26 22:49:00,58.7,46.3,30.15,NNE,13,1.0,2.0,63,0.00,,,0.00,WUHU216DAVISVP2,2013-07-27 03:49:00,
2013-07-26 22:54:00,58.7,46.3,30.15,NNE,33,0.0,3.0,63,0.00,,,0.00,WUHU216DAVISVP2,2013-07-27 03:54:00,
2013-07-26 22:59:00,58.6,46.2,30.15,NNE,19,0.0,4.0,63,0.00,,,0.00,WUHU216DAVISVP2,2013-07-27 03:59:00,
2013-07-26 23:01:00,58.5,46.1,30.15,North,11,0.0,7.0,63,0.00,,,0.00,WUHU216DAVISVP2,2013-07-27 04:01:00,
2013-07-26 23:02:00,58.5,46.1,30.15,North,10,0.0,7.0,63,0.00,,,0.00,WUHU216DAVISVP2,2013-07-27 04:02:00,
2013-07-26 23:07:00,58.4,46.0,30.15,ENE,73,0.0,7.0,63,0.00,,,0.00,WUHU216DAVISVP2,2013-07-27 04:07:00,
2013-07-26 23:12:00,58.1,45.7,30.15,NNE,25,0.0,10.0,63,0.00,,,0.00,WUHU216DAVISVP2,2013-07-27 04:12:00,
2013-07-26 23:17:00,58.0,46.0,30.15,NNE,25,0.0,10.0,64,0.00,,,0.00,WUHU216DAVISVP2,2013-07-27 04:17:00,
2013-07-26 23:22:00,57.8,45.8,30.15,NE,46,0.0,2.0,64,0.00,,,0.00,WUHU216DAVISVP2,2013-07-27 04:22:00,
2013-07-26 23:27:00,57.6,45.6,30.15,North,9,0.0,2.0,64,0.00,,,0.00,WUHU216DAVISVP2,2013-07-27 04:27:00,
2013-07-26 23:32:00,57.4,45.5,30.15,NNE,24,0.0,2.0,64,0.00,,,0.00,WUHU216DAVISVP2,2013-07-27 04:32:00,
2013-07-26 23:37:00,57.2,45.7,30.15,NNE,22,0.0,2.0,65,0.00,,,0.00,WUHU216DAVISVP2,2013-07-27 04:37:00,
2013-07-26 23:42:00,57.0,45.5,30.15,NNE,22,0.0,2.0,65,0.00,,,0.00,WUHU216DAVISVP2,2013-07-27 04:42:00,
2013-07-26 23:47:00,56.9,45.4,30.14,NNE,22,0.0,0.0,65,0.00,,,0.00,WUHU216DAVISVP2,2013-07-27 04:47:00,
2013-07-26 23:52:00,56.8,45.3,30.15,NNE,22,0.0,0.0,65,0.00,,,0.00,WUHU216DAVISVP2,2013-07-27 04:52:00,
2013-07-26 23:57:00,56.8,45.3,30.15,NNE,22,0.0,0.0,65,0.00,,,0.00,WUHU216DAVISVP2,2013-07-27 04:57:00,